Weather History for Cut Bank, MT

Change the Weather History Date:

Monday, August 11, 2014

  Actual Average Record
Temperature  
Mean Temperature 70 °F 65 °F  
Max Temperature 90 °F 81 °F 97 °F (1996)
Min Temperature 49 °F 50 °F 35 °F (1916)
Degree Days  
Heating Degree Days 0 3  
Month to date heating degree days 1 24  
Since 1 June heating degree days 291 343  
Since 1 July heating degree days 18 110  
Cooling Degree Days 5 3  
Month to date cooling degree days 49 33  
Year to date cooling degree days 154 122  
Since 1 June cooling degree days 154 120  
Growing Degree Days 20 (Base 50)    
Moisture  
Dew Point 43 °F    
Average Humidity 49    
Maximum Humidity 80    
Minimum Humidity 17    
Precipitation  
Precipitation 0.00 in 0.04 in 1.79 in (1999)
Month to date precipitation 0.20 0.40  
Year to date precipitation 11.35 7.87  
Snow  
Snow 0.00 in - - ()
Snow Depth 0.00 in    
Sea Level Pressure  
Sea Level Pressure 30.13 in    
Wind  
Wind Speed 5 mph (SE)    
Max Wind Speed 14 mph    
Max Gust Speed 19 mph    
Visibility 10 miles    
Events      
T = Trace of Precipitation, MM = Missing Value Source: NWS Daily Summary

Daily Weather History Graph

Daily Weather History Graph

Search for Another Location

Airport:

Trip Planner

Search our weather history database for the weather conditions in past years. The results will help you decide how hot, cold, wet, or windy it might be!

Date:

Astronomy

Aug. 11, 2014 Rise Set
Actual Time 6:17 AM MDT 8:51 PM MDT
Civil Twilight 5:42 AM MDT 9:26 PM MDT
Nautical Twilight 4:57 AM MDT 10:10 PM MDT
Astronomical Twilight 4:04 AM MDT 11:02 PM MDT
Moon 9:08 PM MDT (8/11) 7:37 AM MDT (8/11)
Length of Visible Light 15h 44m
Length of Day
14h 33m
Full, 98% of the Moon is Illuminated
Aug 11
Full
Aug 17
Last Quarter
Aug 25
New
Sep 2
First Quarter
Sep 8
Full

Hourly Weather History & Observations

Time (MDT) Temp. Dew Point Humidity Pressure Visibility Wind Dir Wind Speed Gust Speed Precip Events Conditions
12:56 AM 55.9 °F 45.0 °F 67% 30.19 in 10.0 mi WNW 8.1 mph - N/A   Clear
1:56 AM 55.4 °F 46.4 °F 72% 30.26 in 10.0 mi WNW 9.2 mph - N/A   Clear
2:56 AM 53.1 °F 46.0 °F 77% 30.18 in 10.0 mi West 9.2 mph - N/A   Clear
3:56 AM 53.6 °F 46.4 °F 77% 30.26 in 10.0 mi WNW 6.9 mph - N/A   Clear
4:56 AM 50.0 °F 44.1 °F 80% 30.18 in 10.0 mi West 5.8 mph - N/A   Clear
5:56 AM 50.0 °F 44.1 °F 80% 30.18 in 10.0 mi NNW 5.8 mph - N/A   Clear
6:56 AM 51.1 °F 45.0 °F 80% 30.19 in 10.0 mi Calm Calm - N/A   Clear
7:56 AM 57.0 °F 46.9 °F 69% 30.19 in 10.0 mi NW 3.5 mph - N/A   Clear
8:56 AM 64.9 °F 48.9 °F 56% 30.19 in 10.0 mi NW 3.5 mph - N/A   Clear
9:56 AM 72.0 °F 46.0 °F 40% 30.18 in 10.0 mi Calm Calm - N/A   Clear
11:56 AM 80.1 °F 44.1 °F 28% 30.16 in 10.0 mi Variable 5.8 mph - N/A   Clear
12:56 PM 82.9 °F 42.1 °F 24% 30.14 in 10.0 mi ESE 8.1 mph 16.1 mph N/A   Clear
1:56 PM 84.9 °F 39.9 °F 20% 30.12 in 10.0 mi SE 6.9 mph - N/A   Clear
2:56 PM 88.0 °F 41.0 °F 19% 30.10 in 10.0 mi South 4.6 mph - N/A   Clear
3:56 PM 87.1 °F 39.0 °F 18% 30.08 in 10.0 mi Calm Calm - N/A   Clear
4:56 PM 88.0 °F 39.9 °F 18% 30.07 in 10.0 mi ESE 10.4 mph - N/A   Clear
5:56 PM 89.6 °F 39.2 °F 17% 30.14 in 10.0 mi SE 6.9 mph - N/A   Clear
6:56 PM 88.0 °F 41.0 °F 19% 30.04 in 10.0 mi ESE 9.2 mph - N/A   Clear
7:56 PM 84.0 °F 41.0 °F 22% 30.03 in 10.0 mi ESE 6.9 mph - N/A   Clear
8:56 PM 75.9 °F 43.0 °F 31% 30.04 in 10.0 mi SE 6.9 mph - N/A   Clear
9:56 PM 75.0 °F 42.1 °F 31% 30.04 in 10.0 mi ESE 5.8 mph - N/A   Clear
10:56 PM 68.0 °F 41.0 °F 37% 30.04 in 10.0 mi ENE 6.9 mph - N/A   Clear
11:56 PM 68.0 °F 44.1 °F 42% 30.05 in 10.0 mi East 3.5 mph - N/A   Clear